Location: Orange
(33.2833°S, 149.1000°E)
Time: 19:16:13
(UTC+10:00)

Tianhe-1 - Visible Passes

Search period start: 15 May 2021 00:00
Search period end: 25 May 2021 00:00
Orbit: 359 x 385 km, 41.5° (Epoch: 14 May)

Date Brightness Start Highest point End Pass type
(mag) Time Alt. Az. Time Alt. Az. Time Alt. Az.
18 May 2.8 05:57:35 10° NNW 06:00:24 32° NE 06:03:14 10° E visible
19 May 3.8 04:55:55 13° NNE 04:56:57 15° NE 04:58:53 10° ENE visible
20 May 1.5 05:28:18 29° NW 05:29:37 57° NNE 05:32:42 10° ESE visible
21 May 4.5 04:28:22 12° E 04:28:22 12° E 04:28:46 10° E visible
21 May 1.5 06:00:22 16° W 06:02:33 43° SSW 06:05:34 10° SE visible
22 May 2.8 05:00:14 30° ESE 05:00:14 30° ESE 05:02:00 10° ESE visible
23 May 2.1 05:31:56 30° SSW 05:31:56 30° SSW 05:34:44 10° SE visible
24 May 2.9 06:03:30 14° SW 06:05:06 19° S 06:07:28 10° SE visible
